Date String (YYYY-MM-DD hh:mm:ss) UTC,Instrument flags,Ambient pressure (hPa),Sample flow (lpm),Bypass flow (lpm),Sample temperature (°C),Ambient temperature (°C),ASC tube jacket temperature (°C),LED temperature (°C),Box temperature (°C),Sample RH (%),Span deviation,Mass concentration (μg/m³),Mass concentration (μg/m³),Mass concentration (μg/m³)
DateTimeUTC,F1_M11,P_M11,Q1_M11,Q2_M11,T1_M11,T2_M11,T3_M11,T4_M11,T5_M11,U1_M11,ZSPAN_M11,X0_M11,X2_M11,X1_M11
2022-08-15 11:00:00,,0828.1,5.00,0.00,30.8,28.4,00.0,39.1,31.9,33.6,0000.0,0006.92,0004.34,0003.95
2022-08-15 11:01:00,,0828.1,4.99,0.00,30.8,28.5,00.0,39.1,31.9,33.2,0000.0,0007.12,0004.34,0003.92
2022-08-15 11:02:00,,0828.1,5.00,0.00,30.8,28.5,00.0,39.1,31.9,32.9,0000.0,0007.14,0004.30,0003.89
2022-08-15 11:03:00,,0828.2,5.00,0.00,30.8,28.6,00.0,39.2,31.9,32.3,0000.0,0006.97,0004.23,0003.84
2022-08-15 11:04:00,,0828.2,5.00,0.00,30.8,28.7,00.0,39.2,32.0,32.0,0000.0,0006.85,0004.17,0003.78
2022-08-15 11:05:00,,0828.2,5.01,0.00,30.8,28.7,00.0,39.2,32.0,32.1,0000.0,0006.85,0004.12,0003.74
2022-08-15 11:06:00,,0828.2,4.99,0.00,30.8,28.8,00.0,39.2,32.0,32.5,0000.0,0007.03,0004.05,0003.70
2022-08-15 11:07:00,,0828.3,4.99,0.00,30.8,28.8,00.0,39.3,32.0,32.9,0000.0,0007.30,0004.03,0003.68
2022-08-15 11:08:00,,0828.2,4.99,0.00,30.8,28.9,00.0,39.3,32.0,33.1,0000.0,0007.36,0004.03,0003.67
2022-08-15 11:09:00,,0828.2,5.01,0.00,30.8,28.9,00.0,39.3,32.0,33.3,0000.0,0007.57,0004.07,0003.68
2022-08-15 11:10:00,,0828.2,4.99,0.00,30.8,29.0,00.0,39.3,32.0,33.3,0000.0,0007.95,0004.11,0003.69
2022-08-15 11:11:00,,0828.2,5.01,0.00,30.8,29.0,00.0,39.3,32.1,33.2,0000.0,0007.93,0004.12,0003.71
2022-08-15 11:12:00,,0828.2,5.01,0.00,30.8,29.0,00.0,39.3,32.1,33.2,0000.0,0007.83,0004.12,0003.72
2022-08-15 11:13:00,,0828.2,5.00,0.00,30.8,29.1,00.0,39.3,32.1,32.7,0000.0,0007.76,0004.11,0003.73
2022-08-15 11:14:00,,0828.2,5.00,0.00,30.7,28.6,00.0,39.3,32.0,32.2,0000.0,0007.77,0004.12,0003.74
2022-08-15 11:15:00,,0828.2,5.00,0.00,30.7,28.0,00.0,39.3,31.9,32.1,0000.0,0008.00,0004.13,0003.76
2022-08-15 11:16:00,,0828.1,4.99,0.00,30.6,27.7,00.0,39.2,31.8,32.2,0000.0,0007.99,0004.12,0003.76
2022-08-15 11:17:00,,0828.1,5.01,0.00,30.5,27.7,00.0,39.2,31.7,32.1,0000.0,0007.83,0004.11,0003.77
2022-08-15 11:18:00,,0828.1,4.99,0.00,30.4,27.7,00.0,39.2,31.7,32.1,0000.0,0007.54,0004.07,0003.74
2022-08-15 11:19:00,,0828.1,5.01,0.00,30.3,27.9,00.0,39.1,31.7,32.3,0000.0,0007.51,0004.04,0003.72
2022-08-15 11:20:00,,0828.1,5.00,0.00,30.3,28.0,00.0,39.1,31.7,32.9,0000.0,0007.38,0004.01,0003.69
2022-08-15 11:21:00,,0828.1,4.99,0.00,30.3,28.1,00.0,39.1,31.7,34.0,0000.0,0006.82,0003.98,0003.68
2022-08-15 11:22:00,,0828.1,5.00,0.00,30.3,28.3,00.0,39.1,31.8,35.5,0000.0,0006.94,0004.05,0003.71
2022-08-15 11:23:00,,0828.1,5.00,0.00,30.5,28.4,00.0,39.1,31.9,34.7,0000.0,0006.91,0004.07,0003.73
2022-08-15 11:24:00,,0828.2,5.01,0.00,30.7,28.5,00.0,39.0,32.0,33.7,0000.0,0007.00,0004.10,0003.75
2022-08-15 11:25:00,,0828.2,5.00,0.00,30.8,28.6,00.0,39.1,32.0,33.9,0000.0,0007.15,0004.15,0003.78
2022-08-15 11:26:00,,0828.2,5.00,0.00,30.8,28.7,00.0,39.1,32.0,34.3,0000.0,0006.88,0004.21,0003.85
2022-08-15 11:27:00,,0828.1,4.99,0.00,30.8,28.7,00.0,39.1,32.0,34.4,0000.0,0007.09,0004.32,0003.92
2022-08-15 11:28:00,,0828.2,5.02,0.00,30.8,28.8,00.0,39.1,32.0,34.4,0000.0,0007.91,0004.39,0003.97
2022-08-15 11:29:00,,0828.1,5.00,0.00,30.8,28.8,00.0,39.2,32.0,34.4,0000.0,0008.54,0004.50,0004.04
2022-08-15 11:30:00,,0828.1,5.00,0.00,30.8,28.9,00.0,39.2,32.0,34.4,0000.0,0008.70,0004.60,0004.11
2022-08-15 11:31:00,,0828.1,5.00,0.00,30.8,29.0,00.0,39.2,32.0,34.4,0000.0,0008.76,0004.65,0004.16
2022-08-15 11:32:00,,0828.3,5.00,0.00,30.8,29.0,00.0,39.3,32.1,34.5,0000.0,0008.79,0004.68,0004.20
2022-08-15 11:33:00,,0828.2,5.01,0.00,30.8,29.0,00.0,39.3,32.1,34.7,0000.0,0008.65,0004.63,0004.21
2022-08-15 11:34:00,,0828.3,5.00,0.00,30.8,28.8,00.0,39.3,32.0,34.8,0000.0,0008.70,0004.65,0004.22
2022-08-15 11:35:00,,0828.3,5.00,0.00,30.7,28.1,00.0,39.2,31.8,34.9,0000.0,0008.75,0004.69,0004.25
2022-08-15 11:36:00,,0828.2,5.00,0.00,30.7,27.7,00.0,39.2,31.7,35.1,0000.0,0008.83,0004.72,0004.27
2022-08-15 11:37:00,,0828.2,5.01,0.00,30.7,27.7,00.0,39.2,31.7,35.2,0000.0,0008.87,0004.72,0004.27
2022-08-15 11:38:00,,0828.2,5.00,0.00,30.9,27.7,00.0,39.2,31.9,35.0,0000.0,0008.94,0004.70,0004.25
2022-08-15 11:39:00,,0828.2,4.99,0.00,31.2,27.8,00.0,39.2,32.0,34.4,0000.0,0008.31,0004.66,0004.23
2022-08-15 11:40:00,,0828.2,5.00,0.00,31.3,28.0,00.0,39.2,32.0,34.2,0000.0,0007.71,0004.64,0004.21
2022-08-15 11:41:00,,0828.2,5.01,0.00,31.4,28.1,00.0,39.2,32.0,34.3,0000.0,0007.60,0004.60,0004.19
2022-08-15 11:42:00,,0828.3,5.00,0.00,31.4,28.3,00.0,39.3,32.0,34.5,0000.0,0007.64,0004.62,0004.18
2022-08-15 11:43:00,,0828.2,4.99,0.00,31.4,28.4,00.0,39.3,32.0,34.6,0000.0,0007.70,0004.63,0004.17
2022-08-15 11:44:00,,0828.1,5.01,0.00,31.4,28.5,00.0,39.4,32.0,34.6,0000.0,0007.81,0004.64,0004.16
2022-08-15 11:45:00,,0828.1,4.99,0.00,31.4,28.6,00.0,39.4,32.0,34.4,0000.0,0007.83,0004.64,0004.16
2022-08-15 11:46:00,,0828.1,4.99,0.00,31.3,28.7,00.0,39.5,32.1,34.3,0000.0,0007.82,0004.62,0004.15
2022-08-15 11:47:00,,0828.1,5.01,0.00,31.3,28.8,00.0,39.5,32.1,34.5,0000.0,0007.75,0004.60,0004.14
2022-08-15 11:48:00,,0828.1,4.99,0.00,31.3,28.8,00.0,39.5,32.1,34.7,0000.0,0007.76,0004.60,0004.14
2022-08-15 11:49:00,,0828.1,5.00,0.00,31.3,28.9,00.0,39.6,32.1,35.3,0000.0,0007.63,0004.58,0004.16
2022-08-15 11:50:00,,0828.2,5.01,0.00,31.4,29.0,00.0,39.6,32.3,35.2,0000.0,0007.71,0004.62,0004.19
2022-08-15 11:51:00,,0828.3,4.99,0.00,31.7,29.0,00.0,39.6,32.5,34.6,0000.0,0007.69,0004.62,0004.20
2022-08-15 11:52:00,,0828.3,4.99,0.00,31.9,29.1,00.0,39.6,32.5,34.2,0000.0,0007.89,0004.61,0004.21
2022-08-15 11:53:00,,0828.3,5.01,0.00,31.9,29.1,00.0,39.7,32.5,34.1,0000.0,0008.36,0004.57,0004.20
2022-08-15 11:54:00,,0828.3,4.99,0.00,32.0,29.0,00.0,39.7,32.4,34.0,0000.0,0008.49,0004.57,0004.21
2022-08-15 11:55:00,,0828.3,5.01,0.00,31.9,28.4,00.0,39.7,32.2,33.9,0000.0,0008.39,0004.56,0004.21
2022-08-15 11:56:00,,0828.3,5.00,0.00,31.9,27.9,00.0,39.7,32.1,34.1,0000.0,0008.37,0004.57,0004.22
2022-08-15 11:57:00,,0828.2,5.00,0.00,31.7,27.8,00.0,39.7,31.9,34.4,0000.0,0008.43,0004.60,0004.23
2022-08-15 11:58:00,,0828.3,5.00,0.00,31.5,27.8,00.0,39.8,31.9,34.7,0000.0,0008.43,0004.63,0004.25
2022-08-15 11:59:00,,0828.3,5.00,0.00,31.5,27.9,00.0,39.8,31.9,34.8,0000.0,0008.33,0004.62,0004.26
